This demonstration page uses our WeatherBlox Daily Observations layout. Learn more.

Left ArrowRight Arrow

36.17497, -115.13722

Hourly Observations for September 4, 2016

Temp ( °F °C ) Dew Point ( °F °C ) Humidity (%) Winds ( mph kmh ) Pressure ( in mb ) Visibility ( mi km ) Precip ( " mm )
12:53 am 00:53 Clear 82 27.8 35 1.7 18 18 SW 6 9 29.61 1003 10 16.0934 0 0
1:53 am 01:53 Clear 81 27.2 37 2.8 21 21 SW 6 9 29.61 1003 10 16.0934 0 0
2:53 am 02:53 Clear 80 26.7 37 2.8 21 21 SSW 9 15 29.61 1003 10 16.0934 0 0
3:53 am 03:53 Clear 77 25 39 3.9 26 26 S 10 17 29.61 1003 10 16.0934 0 0
4:53 am 04:53 Clear 76 24.4 38 3.3 25 25 S 9 15 29.61 1003 10 16.0934 0 0
5:53 am 05:53 Clear 75 23.9 37 2.8 25 25 SSE 10 17 29.62 1003 10 16.0934 0 0
6:53 am 06:53 Sunny 75 23.9 35 1.7 23 23 S 14 22 29.63 1003 10 16.0934 0 0
7:53 am 07:53 Sunny 78 25.6 31 -0.6 18 18 SSW 20 31 29.65 1004 10 16.0934 0 0
8:53 am 08:53 Sunny 81 27.2 30 -1.1 16 16 S 12 19 29.65 1004 10 16.0934 0 0
9:53 am 09:53 Sunny 84 28.9 30 -1.1 14 14 S 17 28 29.64 1004 10 16.0934 0 0
10:53 am 10:53 Sunny 86 30 30 -1.1 13 13 SSW 17 28 29.65 1004 10 16.0934 0 0
11:53 am 11:53 Sunny 89 31.7 30 -1.1 12 12 S 18 30 29.62 1003 10 16.0934 0 0
12:53 pm 12:53 Sunny 91 32.8 29 -1.7 11 11 S 17 28 29.6 1002 10 16.0934 0 0
1:53 pm 13:53 Sunny 92 33.3 27 -2.8 10 10 SSW 17 28 29.58 1002 10 16.0934 0 0
2:53 pm 14:53 Sunny 93 33.9 27 -2.8 9 9 WSW 18 30 29.57 1001 10 16.0934 0 0
3:53 pm 15:53 Sunny 93 33.9 26 -3.3 9 9 SW 20 31 29.54 1001 10 16.0934 0 0
4:53 pm 16:53 Sunny 92 33.3 25 -3.9 9 9 SW 21 33 29.55 1001 10 16.0934 0 0
5:53 pm 17:53 Sunny 91 32.8 22 -5.6 8 8 SW 16 26 29.56 1001 10 16.0934 0 0
6:53 pm 18:53 Sunny 88 31.1 18 -7.8 7 7 SW 16 26 29.57 1001 10 16.0934 0 0
7:53 pm 19:53 Clear 87 30.6 17 -8.3 7 7 WSW 13 20 29.59 1002 10 16.0934 0 0
8:53 pm 20:53 Clear 86 30 18 -7.8 8 8 SW 8 13 29.61 1003 10 16.0934 0 0
9:53 pm 21:53 Clear 85 29.4 18 -7.8 8 8 SSW 10 17 29.62 1003 10 16.0934 0 0
10:53 pm 22:53 Clear 82 27.8 16 -8.9 8 8 W 7 11 29.63 1004 10 16.0934 0 0
11:53 pm 23:53 Clear 79 26.1 14 -10 8 8 S 7 11 29.65 1004 10 16.0934 0 0

Powered by AerisWeather